Soldotna, AK

10:47 AM AKST on December 05, 2019 (GMT -0900)
Soldotna

Weather History for PASX - October, 2019

Change the Weather History Date:

Wednesday, October 16, 2019

  Actual Average Record
Temperature  
Mean Temperature 32 °F -  
Max Temperature 33 °F 42 °F 54 °F (1972)
Min Temperature 30 °F 28 °F 3 °F (1996)
Degree Days  
Heating Degree Days 34    
Moisture  
Dew Point 29 °F    
Average Humidity 86    
Maximum Humidity 96    
Minimum Humidity 72    
Precipitation  
Precipitation 0.01 in - - ()
Sea Level Pressure  
Sea Level Pressure 29.20 in    
Wind  
Wind Speed 4 mph (NE)    
Max Wind Speed 9 mph    
Max Gust Speed -    
Visibility 6 miles    
Events Snow    
Averages and records for this station are not official NWS values.
T = Trace of Precipitation, MM = Missing Value Source: NWS Daily Summary

Daily Weather History Graph

Daily Weather History Graph

Search for Another Location

Airport or City:

Astronomy

Oct. 16, 2019 Rise Set
Actual Time 8:47 AM AKDT 6:50 PM AKDT
Civil Twilight 8:04 AM AKDT 7:33 PM AKDT
Nautical Twilight 7:15 AM AKDT 8:22 PM AKDT
Astronomical Twilight 6:25 AM AKDT 9:11 PM AKDT
Moon 8:09 PM AKDT (10/16) 12:04 PM AKDT (10/16)
Length of Visible Light 11h 29m
Length of Day
10h 03m
Waning Gibbous, 92% of the Moon is Illuminated
Oct 16
Waning Gibbous
Oct 21
Last Quarter
Oct 27
New
Nov 4
First Quarter
Nov 12
Full

Hourly Weather History & Observations

Time (AKDT) Temp. Windchill Dew Point Humidity Pressure Visibility Wind Dir Wind Speed Gust Speed Precip Events Conditions
1:56 AM 30.9 °F - 26.1 °F 82% 29.39 in 10.0 mi Calm Calm - N/A   Clear
2:56 AM 33.1 °F 25.5 °F 25.0 °F 72% 29.37 in 10.0 mi East 9.2 mph - N/A   Clear
3:56 AM 33.1 °F 28.7 °F 25.0 °F 72% 29.37 in 10.0 mi East 4.6 mph - N/A   Overcast
4:56 AM 33.1 °F 30.0 °F 27.0 °F 78% 29.36 in 10.0 mi NE 3.5 mph - N/A   Overcast
5:56 AM 33.1 °F - 27.0 °F 78% 29.34 in 10.0 mi Calm Calm - N/A   Overcast
6:56 AM 32.0 °F - 27.0 °F 82% 29.34 in 10.0 mi Calm Calm - N/A   Partly Cloudy
7:56 AM 30.9 °F 27.5 °F 28.0 °F 89% 29.32 in 10.0 mi East 3.5 mph - 0.00 in   Clear
8:56 AM 30.9 °F 27.5 °F 28.9 °F 92% 29.31 in 9.0 mi ENE 3.5 mph - 0.00 in Snow Light Snow
9:56 AM 30.9 °F 27.5 °F 28.9 °F 92% 29.29 in 9.0 mi ENE 3.5 mph - 0.00 in Snow Light Snow
10:56 AM 32.0 °F 25.6 °F 28.0 °F 85% 29.27 in 4.0 mi ENE 6.9 mph - 0.00 in Snow Light Snow
11:36 AM 32.0 °F 26.4 °F 28.4 °F 87% 29.22 in 6.0 mi NE 5.8 mph - 0.00 in Snow Light Snow
11:56 AM 33.1 °F 27.7 °F 28.0 °F 82% 29.25 in 3.0 mi NE 5.8 mph - 0.00 in Snow Light Snow
12:16 PM 33.8 °F 30.8 °F 28.4 °F 81% 29.21 in 2.5 mi NE 3.5 mph - 0.00 in Snow Light Snow
12:39 PM 33.8 °F 28.6 °F 28.4 °F 81% 29.20 in 4.0 mi NNE 5.8 mph - 0.00 in Snow Light Snow
12:56 PM 33.1 °F 26.1 °F 28.9 °F 85% 29.23 in 4.0 mi NE 8.1 mph - 0.00 in Snow Light Snow
1:04 PM 33.8 °F 27.7 °F 28.4 °F 81% 29.20 in 2.5 mi NE 6.9 mph - 0.00 in Snow Light Snow
1:23 PM 32.0 °F 26.4 °F 28.4 °F 87% 29.19 in 4.0 mi NE 5.8 mph - 0.00 in Snow Light Snow
1:35 PM 33.8 °F 30.8 °F 28.4 °F 81% 29.18 in 4.0 mi NNE 3.5 mph - 0.00 in Snow Light Snow
1:56 PM 33.1 °F 28.7 °F 30.0 °F 89% 29.21 in 2.5 mi North 4.6 mph - 0.00 in Snow Light Snow
2:11 PM 33.8 °F 29.6 °F 28.4 °F 81% 29.17 in 1.5 mi NNE 4.6 mph - 0.00 in Snow Light Snow
2:44 PM 33.8 °F 28.6 °F 30.2 °F 87% 29.16 in 2.5 mi NNE 5.8 mph - 0.00 in Snow Light Snow
2:56 PM 33.1 °F 27.7 °F 30.0 °F 89% 29.19 in 5.0 mi NNE 5.8 mph - 0.00 in Snow Light Snow
3:39 PM 33.8 °F 26.4 °F 28.4 °F 81% 29.14 in 4.0 mi NE 9.2 mph - 0.00 in Snow Light Snow
3:56 PM 33.1 °F 26.9 °F 28.9 °F 85% 29.16 in 4.0 mi NE 6.9 mph - 0.00 in Snow Light Snow
4:56 PM 33.1 °F 26.1 °F 28.9 °F 85% 29.15 in 5.0 mi NE 8.1 mph - 0.00 in Snow Light Snow
5:56 PM 33.1 °F 30.0 °F 30.0 °F 89% 29.13 in 6.0 mi NNE 3.5 mph - 0.00 in   Overcast
6:12 PM 33.8 °F 28.6 °F 30.2 °F 87% 29.10 in 7.0 mi NNE 5.8 mph - 0.00 in   Overcast
6:53 PM 33.8 °F - 30.2 °F 87% 29.10 in 9.0 mi Calm Calm - 0.00 in Snow Light Snow
6:56 PM 33.1 °F 30.0 °F 30.0 °F 89% 29.13 in 9.0 mi NNE 3.5 mph - 0.00 in Snow Light Snow
7:21 PM 33.8 °F 30.8 °F 30.2 °F 87% 29.10 in 7.0 mi NNE 3.5 mph - 0.00 in Snow Light Snow
7:56 PM 32.0 °F 26.4 °F 30.0 °F 92% 29.12 in 6.0 mi NE 5.8 mph - 0.00 in Snow Light Snow
8:27 PM 32.0 °F 28.7 °F 30.2 °F 93% 29.09 in 3.0 mi ENE 3.5 mph - 0.00 in Snow Light Snow
8:56 PM 32.0 °F - 30.0 °F 92% 29.12 in 4.0 mi Calm Calm - 0.01 in Snow Light Snow
9:47 PM 32.0 °F - 30.2 °F 93% 29.08 in 8.0 mi Calm Calm - 0.00 in Snow Light Snow
9:56 PM 32.0 °F - 30.0 °F 92% 29.11 in 9.0 mi Calm Calm - 0.00 in Snow Light Snow
10:39 PM 32.0 °F 28.7 °F 30.2 °F 93% 29.08 in 10.0 mi East 3.5 mph - 0.00 in   Overcast
10:56 PM 32.0 °F 28.7 °F 30.9 °F 96% 29.11 in 10.0 mi ENE 3.5 mph - 0.00 in   Overcast
11:56 PM 33.1 °F - 30.9 °F 92% 29.11 in 10.0 mi Calm Calm - N/A   Overcast